Regional Weather Roundup
Issued by NWS

Home | Current Version | Previous Version | Graphics & Text | Print | Product List | Glossary On
Versions: 1 2 3 4 5 6 7 8 9 10 11 12 13 14 15 16 17 18 19 20 21 22 23 24 25 26 27 28 29 30 31 32 33 34 35 36 37 38 39 40 41 42 43 44 45 46 47 48 49 50
000
ASUS43 KBIS 050710
RWRND

NORTH DAKOTA REGIONAL WEATHER ROUNDUP
NATIONAL WEATHER SERVICE BISMARCK ND
200 AM CDT SUN JUL 05 2015

NOTE: "FAIR" INDICATES FEW OR NO CLOUDS BELOW 12,000 FEET WITH NO
SIGNIFICANT WEATHER AND/OR OBSTRUCTIONS TO VISIBILITY.


NDZ001>003-009>011-017-050800-
NORTHWEST NORTH DAKOTA

CITY           SKY/WX    TMP DP  RH WIND       PRES   REMARKS
WILLISTON      CLEAR     67  61  81 NE9       29.78S
MINOT          PTCLDY    62  60  93 NW3       29.77R FOG
MINOT AFB      CLEAR     62  62 100 W2        29.77R
$$

NDZ018>021-031>035-040>046-050800-
SOUTHWEST NORTH DAKOTA

CITY           SKY/WX    TMP DP  RH WIND       PRES   REMARKS
BISMARCK       CLEAR     70  68  93 SE3       29.73R
DICKINSON      CLEAR     62  58  86 CALM      29.75F
GARRISON         N/A     66  62  87 N6        29.75R
HETTINGER ARPT PTCLDY    63  60  90 CALM      29.77F FOG
$$

NDZ004>008-012>016-024-026-027-054-050800-
NORTHEAST NORTH DAKOTA

CITY           SKY/WX    TMP DP  RH WIND       PRES   REMARKS
GRAND FORKS    LGT RAIN  68  64  87 W7        29.74F
GRND FRKS AFB  CLOUDY    66  64  94 SW3       29.75F
DEVILS LAKE    MOCLDY    66  61  82 SE6       29.75S
$$

NDZ022-023-025-028>030-036>039-047>053-050800-
SOUTHEAST NORTH DAKOTA

CITY           SKY/WX    TMP DP  RH WIND       PRES   REMARKS
FARGO          CLOUDY    74  65  73 S10       29.77S
JAMESTOWN      PTCLDY    71  66  84 S10       29.75S
$$



USA.gov is the U.S. government's official web portal to all federal, state and local government web resources and services.